www.pogodaiklimat.ru

Погода и климат >> Архив погоды >> Венгрия >> Szentgotthard


ПОГОДА в Szentgotthard

  • Прогноз погоды в Szentgotthard
  • Монитор погоды в Szentgotthard
  • Климат города

АРХИВ ПОГОДЫ в Szentgotthard

Время (UTC), дата Ветер
(напр.,м/с)
 
Видим.   Явления Облачность Т
(С)
Тd
(С)
f
(%)
Тe
(С)
Тes
(С)
Комфортность P
(гПа)
Po
(гПа)
Тmin
(С)
Tmax
(С)
R
(мм)
R24
(мм)
S
(см)
22 6.12 штиль 0 н/о н/о +1.9 -0.8 82 +1 +1 1025.6 986.5
23 6.12 штиль 0 н/о н/о +1.6 -0.8 84 +1 +1 1025.6 986.5
00 7.12 Ю 1 н/о н/о +0.7 -0.9 89 -1 -1 1025.1 985.9
01 7.12 штиль 0 н/о н/о -0.1 -1.4 91 -1 -1 1024.8 985.5
02 7.12 штиль 0 н/о н/о -0.6 -1.4 94 -2 -2 1024.7 985.3
03 7.12 З 1 н/о н/о -0.8 -1.5 95 -3 -3 1024.3 984.9
04 7.12 ЮЗ 1 н/о н/о -0.2 -1.0 94 -2 -2 1023.4 984.1
05 7.12 ЮЗ 1 н/о н/о +0.7 -0.3 93 -1 -1 1022.7 983.6
06 7.12 штиль 0 н/о н/о +0.9 -0.1 93 -0 -0 1022.7 983.6 -0.9
07 7.12 Ю 1 н/о н/о +0.7 -0.3 93 -1 -1 1021.9 982.8
08 7.12 штиль 0 н/о н/о +1.7 +0.7 93 +1 +1 1021.7 982.7
09 7.12 Ю 1 н/о н/о +4.0 +1.4 83 +3 +3 1020.7 982.1
10 7.12 Ю 2 н/о н/о +6.1 +2.0 75 +4 +4 1020.1 981.8
11 7.12 Ю 2 н/о н/о +6.8 +2.7 75 +5 +5 1018.9 980.7
12 7.12 Ю 2 н/о н/о +7.8 +2.9 71 +6 +6 1017.7 979.7
13 7.12 Ю 2 н/о н/о +8.8 +3.4 69 +7 +7 1016.7 978.9
14 7.12 Ю 2 н/о н/о +9.3 +3.7 68 +8 +8 1015.8 978.1
15 7.12 Ю 2 н/о н/о +7.6 +3.1 73 +6 +6 1015.5 977.6
16 7.12 ЮВ 1 н/о н/о +5.1 +3.1 87 +4 +4 1014.9 976.7
17 7.12 Ю 2 н/о н/о +4.5 +3.2 91 +2 +2 1013.7 975.4
18 7.12 ЮЗ 1 н/о н/о +4.3 +3.3 93 +3 +3 1012.9 974.6 +9.7
21 7.12 Ю 1 н/о н/о +2.8 +2.7 99 +1 +1 1009.5 971.2
00 8.12 З 1 н/о н/о +6.7 +4.5 86 +6 +6 1008.2 970.4
01 8.12 С 2 н/о н/о +4.9 +3.4 90 +2 +2 1008.9 970.9
02 8.12 штиль 0 н/о н/о +4.8 +3.6 92 +4 +4 1009.6 971.5
03 8.12 штиль 0 н/о н/о +4.4 +4.0 97 +3 +3 1009.1 971.0
04 8.12 СЗ 1 н/о н/о +4.6 +4.5 99 +3 +3 1009.7 971.6
05 8.12 С 4
{10}
н/о н/о +4.1 +4.1 100 -1 -1 1011.5 973.3
06 8.12 З 1
{8}
н/о н/о +5.2 +5.2 100 +4 +4 1010.9 972.8 +2.3 6
07 8.12 З 1 н/о н/о +4.9 +4.9 100 +3 +3 1012.0 973.8
08 8.12 СЗ 2 н/о н/о +5.7 +4.7 93 +3 +3 1011.7 973.7
09 8.12 СЗ 2 н/о н/о +7.1 +2.4 72 +5 +5 1012.5 974.6
10 8.12 С 3
{7}
н/о н/о +7.7 +1.1 63 +5 +5 1012.7 974.9
11 8.12 З 1 н/о н/о +7.1 +3.3 77 +6 +6 1013.2 975.3
12 8.12 З 1 н/о н/о +6.9 +3.7 80 +6 +6 1013.3 975.4
13 8.12 З 1 н/о н/о +7.5 +4.8 83 +7 +7 1013.5 975.6
14 8.12 З 1 н/о н/о +7.2 +3.6 78 +6 +6 1013.6 975.7
15 8.12 З 1 н/о н/о +5.2 +3.1 86 +4 +4 1014.2 976.0
16 8.12 ЮЗ 1 н/о н/о +3.7 +1.7 87 +2 +2 1014.6 976.2
17 8.12 ЮЗ 2 н/о н/о +3.3 +0.9 84 0 0 1014.7 976.2
18 8.12 Ю 1 н/о н/о +2.8 +1.6 92 +1 +1 1014.7 976.2 +8.0
19 8.12 ЮЗ 2 н/о н/о +3.6 +1.6 87 +1 +1 1014.4 976.0
20 8.12 ЮЗ 2 н/о н/о +3.6 +1.3 85 +1 +1 1014.2 975.8
21 8.12 ЮЗ 1 н/о н/о +3.1 +1.5 89 +2 +2 1014.2 975.7
22 8.12 ЮЗ 1 н/о н/о +2.7 +0.9 88 +1 +1 1013.7 975.2
23 8.12 Ю 1 н/о н/о +2.4 +0.9 90 +1 +1 1013.4 974.9
00 9.12 ЮЗ 2 н/о н/о +2.1 +0.2 87 -1 -1 1012.6 974.0
01 9.12 Ю 2 н/о н/о +1.4 -0.1 90 -2 -2 1011.5 972.9
02 9.12 ЮЗ 2 н/о н/о +2.2 -0.2 84 -1 -1 1009.8 971.4
03 9.12 З 1 н/о н/о +1.0 -0.5 90 -1 -1 1009.4 970.8
04 9.12 ЮЗ 2 н/о н/о +2.0 +0.4 89 -1 -1 1008.5 970.1
05 9.12 ЮЗ 2 н/о н/о +2.3 +0.5 88 -1 -1 1007.1 968.8
06 9.12 ЮЗ 2 н/о н/о +3.3 +0.7 83 0 0 1006.3 968.1 +1.0
07 9.12 Ю 2 н/о н/о +3.1 +0.3 82 0 0 1006.0 967.8
08 9.12 Ю 3 н/о н/о +4.4 +0.5 76 +1 +1 1005.0 967.0
09 9.12 ЮЗ 2 н/о н/о +5.3 +0.9 73 +3 +3 1005.1 967.3
10 9.12 ЮЗ 2 н/о н/о +7.5 +0.7 62 +6 +6 1004.5 967.0
11 9.12 З 1 н/о н/о +6.5 +1.2 69 +6 +6 1005.3 967.6
12 9.12 ЮЗ 2 н/о н/о +9.0 +1.4 59 +8 +8 1003.9 966.6
13 9.12 ЮЗ 2 н/о н/о +8.5 +1.4 61 +7 +7 1004.1 966.7
14 9.12 ЮЗ 1 н/о н/о +7.9 +1.7 65 +7 +7 1004.4 966.9
15 9.12 Ю 1 н/о н/о +6.2 +1.5 72 +5 +5 1004.6 966.9
16 9.12 ЮЗ 1 н/о н/о +5.1 +1.8 79 +4 +4 1004.5 966.7
17 9.12 З 1 н/о н/о +4.8 +1.1 77 +4 +4 1005.2 967.3
18 9.12 З 1 н/о н/о +4.4 +0.4 75 +3 +3 1005.6 967.6 +9.5
19 9.12 Ю 1 н/о н/о +4.0 +0.2 76 +3 +3 1006.2 968.1
20 9.12 штиль 0 н/о н/о +3.8 -0.0 76 +3 +3 1006.8 968.7
21 9.12 штиль 0 н/о н/о +3.7 +0.2 78 +3 +3 1007.2 969.1
22 9.12 З 1 н/о н/о +3.9 +0.1 76 +3 +3 1007.4 969.3
23 9.12 З 2 н/о н/о +4.0 +0.3 77 +1 +1 1008.0 969.9
00 10.12 СЗ 1 н/о н/о +3.3 +0.2 80 +2 +2 1008.5 970.3
01 10.12 СЗ 2 н/о н/о +3.7 +0.4 79 +1 +1 1009.1 970.9
02 10.12 СЗ 1 н/о н/о +3.0 +0.1 81 +2 +2 1009.8 971.5
03 10.12 СЗ 2 н/о н/о +2.6 +0.3 85 -1 -1 1010.3 971.9
04 10.12 З 2 н/о н/о +2.5 +0.1 84 -1 -1 1010.6 972.2
05 10.12 З 1 н/о н/о +2.4 0.0 84 +1 +1 1011.0 972.5
06 10.12 СЗ 2 н/о н/о +2.4 +0.5 87 -1 -1 1011.6 973.1 +1.7
07 10.12 З 1 н/о н/о +2.2 +0.4 88 +1 +1 1013.4 974.8
08 10.12 С 1 н/о н/о +4.6 +1.5 80 +3 +3 1013.6 975.3
09 10.12 З 1 н/о н/о +5.6 +2.1 78 +5 +5 1014.5 976.3
10 10.12 З 2 н/о н/о +6.2 -0.1 64 +4 +4 1014.9 976.8
11 10.12 СЗ 3
{7}
н/о н/о +6.5 -1.6 56 +4 +4 1015.1 977.0
12 10.12 З 3 н/о н/о +7.3 -1.1 55 +5 +5 1015.0 977.1
13 10.12 СЗ 3
{8}
н/о н/о +6.9 -1.8 54 +4 +4 1015.3 977.3
14 10.12 СЗ 2
{10}
н/о н/о +6.1 -1.1 60 +4 +4 1015.9 977.8
15 10.12 штиль 0 н/о н/о +4.3 -0.7 70 +4 +4 1016.5 978.1
16 10.12 СЗ 1 н/о н/о +2.3 -0.6 81 +1 +1 1017.3 978.6
17 10.12 З 1 н/о н/о +0.9 -0.9 88 -1 -1 1017.2 978.3
18 10.12 СЗ 1 н/о н/о +1.2 -0.4 89 -1 -1 1017.7 978.8 +7.6
19 10.12 СЗ 1 н/о н/о +0.4 -1.4 88 -2 -2 1018.2 979.2
20 10.12 З 1 н/о н/о -0.5 -1.6 92 -3 -3 1018.5 979.4
21 10.12 З 1 н/о н/о +1.2 -2.7 75 -0 -0 1017.7 978.8
22 10.12 З 1 н/о н/о -0.6 -3.0 84 -3 -3 1017.6 978.5
23 10.12 СЗ 1 н/о н/о -0.6 -3.0 84 -3 -3 1017.4 978.3
00 11.12 З 1 н/о н/о -0.8 -2.5 88 -3 -3 1017.5 978.4
01 11.12 З 1 н/о н/о -0.9 -2.5 89 -3 -3 1017.5 978.3
02 11.12 штиль 0 н/о н/о -2.1 -2.8 95 -3 -3 1018.2 978.8
03 11.12 З 1 н/о н/о -1.6 -2.4 94 -4 -4 1017.9 978.6
04 11.12 штиль 0 н/о н/о -1.4 -2.2 94 -3 -3 1017.6 978.4
05 11.12 З 1 н/о н/о -1.6 -2.0 97 -4 -4 1017.9 978.6
06 11.12 З 1 н/о н/о -1.3 -1.9 96 -4 -4 1017.5 978.3 -2.4
07 11.12 З 1 н/о н/о -0.5 -2.1 89 -3 -3 1017.3 978.2
08 11.12 З 1 н/о н/о -0.4 -2.4 86 -2 -2 1017.4 978.3
09 11.12 З 2 н/о н/о +1.6 -2.5 74 -2 -2 1017.3 978.5
10 11.12 З 1 н/о н/о +3.3 -2.6 65 +2 +2 1017.3 978.7
11 11.12 З 1 н/о н/о +4.0 -3.1 60 +3 +3 1017.0 978.5
12 11.12 З 3 н/о н/о +5.3 -3.8 52 +2 +2 1016.6 978.3
13 11.12 З 3
{8}
н/о н/о +5.9 -4.5 47 +3 +3 1016.4 978.2
14 11.12 З 2 н/о н/о +5.7 -3.6 51 +4 +4 1016.7 978.5
15 11.12 З 1 н/о н/о +4.6 -4.1 53 +4 +4 1017.2 978.8
16 11.12 З 1 н/о н/о +2.7 -3.8 62 +2 +2 1017.6 978.9
17 11.12 З 2 н/о н/о +3.4 -5.5 52 +1 +1 1017.7 979.1
18 11.12 З 2
{7}
н/о н/о +3.8 -6.5 47 +2 +2 1017.9 979.4 +6.0
19 11.12 З 2 н/о н/о +3.7 -6.3 48 +2 +2 1018.1 979.6
20 11.12 З 2
{7}
н/о н/о +3.5 -6.2 49 +1 +1 1018.3 979.7
21 11.12 З 1 н/о н/о +3.0 -5.9 52 +2 +2 1018.2 979.6
22 11.12 З 1 н/о н/о +3.0 -6.1 51 +2 +2 1018.2 979.6
23 11.12 З 2 н/о н/о +3.1 -6.0 51 +1 +1 1018.1 979.5
00 12.12 штиль 0 н/о н/о +1.5 -5.9 58 +1 +1 1018.5 979.6
01 12.12 З 1 н/о н/о +1.9 -5.3 59 +1 +1 1018.4 979.6
02 12.12 З 1 н/о н/о +2.2 -5.4 57 +1 +1 1018.5 979.7
03 12.12 штиль 0 н/о н/о +1.0 -4.8 65 0 0 1018.7 979.8
04 12.12 штиль 0 н/о н/о +1.0 -5.2 63 0 0 1018.7 979.8
05 12.12 З 1 н/о н/о +1.2 -5.1 63 -0 -0 1018.9 980.0
06 12.12 штиль 0 н/о н/о +1.2 -4.6 65 +1 +1 1018.9 980.0 +0.9
07 12.12 штиль 0 н/о н/о +0.1 -4.9 69 -1 -1 1019.7 980.6
08 12.12 штиль 0 н/о н/о +0.6 -4.0 71 -0 -0 1020.0 981.0
09 12.12 штиль 0 н/о н/о +3.2 -2.3 67 +3 +3 1020.0 981.3
10 12.12 В 1 н/о н/о +4.4 -2.5 61 +4 +4 1020.0 981.5
11 12.12 С 1 н/о н/о +4.1 -2.7 61 +3 +3 1020.2 981.6
12 12.12 СВ 2 н/о н/о +4.6 -1.2 66 +2 +2 1020.2 981.7
13 12.12 С 2 н/о н/о +3.8 -1.6 68 +1 +1 1020.4 981.8
14 12.12 СВ 2 н/о н/о +3.2 +0.3 81 0 0 1020.6 981.9
15 12.12 штиль 0 н/о н/о +1.7 -0.2 87 +1 +1 1021.2 982.3
16 12.12 В 1 н/о н/о -0.3 -1.1 94 -2 -2 1021.6 982.4
17 12.12 штиль 0 н/о н/о -1.5 -1.9 97 -3 -3 1022.1 982.7
18 12.12 СВ 1 н/о н/о -1.1 -1.4 98 -3 -3 1022.4 983.0 +5.2
19 12.12 штиль 0 н/о н/о -1.3 -1.9 96 -3 -3 1022.6 983.2
20 12.12 штиль 0 н/о н/о -1.9 -2.2 98 -3 -3 1022.7 983.2
21 12.12 штиль 0 н/о н/о -2.4 -2.5 99 -4 -4 1022.9 983.3
22 12.12 штиль 0 н/о н/о -2.3 -2.4 99 -4 -4 1023.0 983.4
23 12.12 штиль 0 н/о н/о -2.2 -2.3 99 -4 -4 1023.1 983.5
00 13.12 штиль 0 н/о н/о -3.1 -3.5 97 -4 -4 1023.2 983.5
01 13.12 СЗ 1 н/о н/о -3.0 -3.3 98 -5 -5 1023.1 983.4
02 13.12 штиль 0 н/о н/о -2.0 -2.1 99 -3 -3 1023.1 983.6
03 13.12 штиль 0 н/о н/о -1.8 -2.1 98 -3 -3 1022.9 983.4
04 13.12 В 1 н/о н/о -1.6 -2.2 96 -4 -4 1022.5 983.0
05 13.12 В 1 н/о н/о -1.4 -1.7 98 -4 -4 1022.3 982.9
06 13.12 штиль 0 н/о н/о -1.6 -2.0 97 -3 -3 1022.6 983.1 -3.1
07 13.12 штиль 0 н/о н/о -1.3 -1.6 98 -3 -3 1022.7 983.3
08 13.12 В 1 н/о н/о -1.2 -1.5 98 -4 -4 1022.9 983.5
09 13.12 В 2 н/о н/о -0.6 -1.3 95 -5 -5 1022.7 983.4
10 13.12 В 2 н/о н/о -0.6 -1.6 93 -4 -4 1022.5 983.2
11 13.12 штиль 0 н/о н/о -0.5 -1.9 90 -2 -2 1022.2 982.9
12 13.12 штиль 0 н/о н/о -0.3 -2.4 86 -1 -1 1021.8 982.6
13 13.12 штиль 0 н/о н/о -0.3 -2.7 84 -1 -1 1021.4 982.2
14 13.12 СВ 1 н/о н/о -0.3 -2.2 87 -2 -2 1021.4 982.2
15 13.12 СВ 1 н/о н/о -0.6 -2.8 85 -3 -3 1021.6 982.3
16 13.12 В 1 н/о н/о -0.8 -2.2 90 -3 -3 1021.6 982.3
17 13.12 штиль 0 н/о н/о -0.8 -2.5 88 -2 -2 1021.5 982.2
18 13.12 С 1 н/о н/о -1.0 -2.4 90 -3 -3 1021.7 982.4 -0.1
19 13.12 штиль 0 н/о н/о -1.1 -2.4 91 -2 -2 1021.9 982.5
20 13.12 СВ 1 н/о н/о -1.3 -2.1 94 -4 -4 1022.2 982.8

 

Местоположение метеостанции Szentgotthard (Венгрия): широта 46.92 долгота 16.32 высота над уровнем моря 313 м.

В архиве по умолчанию представлена погода в Szentgotthard за последнюю неделю. Архивные данные за месяц целиком и за предыдущие месяцы, начиная с января 2011 года, Вы можете получить, выбрав интересующий диапазон дат из раскрывающегося списка и нажав кнопку "Ввод!".


*Определитесь, кто Вы:
робот инопланетянин человек

Внимание! Время в таблицах - всемирное. Для получения местного времени необходимо прибавить поправку, которая в Szentgotthard равна 1 ч.

Смотрите также архив погоды в соседних городах и на ближайших метеорологических станциях:

Погода в Kleinzicken (Австрия) (31 км)
Погода в Murska Sobota (Словения) (32 км)
Погода в Bad Gleichenberg (Австрия) (32 км)
Погода в Feldbach (Австрия) (34 км)
Погода в Zalaegerszeg (Венгрия) (37 км)
Погода в Bad Radkersburg (Австрия) (37 км)
Погода в Szombathely (Венгрия) (45 км)
Погода в Bad Tatzmannsdorf (Австрия) (46 км)
Погода в Hartberg (Австрия) (48 км)
Погода в Lassnitzhoehe (Австрия) (59 км)

Пояснения к столбцам:

Ветер - указаны скорость ветра в м/с - средняя за 10 мин, порывы в срок и между сроками (в фигурных скобках) и направление, откуда дует ветер: С - северный, СВ - северо-восточный, В - восточный, ЮВ - юго-восточный, Ю - южный, ЮЗ - юго-западный, З - западный, СЗ - северо-западный.
Видимость - горизонтальная дальность видимости в метрах или километрах. При видимости от 1 до 10 км при отсутствии осадков обычно наблюдается дымка, при ухудшении видимости до 1 км и менее - туман. В сухую погоду видимость может ухудшаться дымом, пылью или мглою.
Явления - указаны атмосферные явления, наблюдавшиеся в срок или в последний час перед сроком; фигурными скобками обозначены явления, наблюдавшиеся между сроками (за 1-3 часа до срока); квадратными скобками обозначены град или гололедные отложения с указанием их диаметра в мм.
Облачность - указаны через наклонную черту общая и нижняя облачность в баллах и высота нижней границы облаков в метрах; квадратными скобками обозначены формы облаков: Ci - перистые, Cs - перисто-слоистые, Cc - перисто-кучевые, Ac - высококучевые, As - высокослоистые, Sc - слоисто-кучевые, Ns - слоисто-дождевые, Cu - кучевые, Cb - кучево-дождевые. Подробнее классификацию облаков см. в Атласе облаков (PDF).
T - Температура воздуха - температура, измеренная на высоте 2 м над землей.
Td - Температура точки росы - температура, при понижении до которой содержащийся в воздухе водяной пар достигнет насыщения.
f - Относительная влажность воздуха - влажноcть воздуха, измеренная на высоте 2 м над землей.
Te - Эффективная температура - температура, которую ощущает одетый по сезону человек в тени. Характеристика душности погоды. При расчете учитывается влияние влажности воздуха и скорости ветра на теплоощущения человека.
Tes - Эффективная температура на солнце - температура, которую ощущает человек, с поправкой на солнечный нагрев. Характеристика знойности погоды. Зависит от высоты солнца над горизонтом, облачности и скорости ветра. Ночью, в пасмурную погоду, а также при ветре 12 м/с и более поправка равна нулю.
P - Атмосферное давление - приведенное к уровню моря атмосферное давление.
Po - Атмосферное давление - измеренное на уровне метеостанции атмосферное давление.
Tmin - Минимальная температура - минимум температуры воздуха на высоте 2 м над землей.
Tmax - Максимальная температура - максимум температуры воздуха на высоте 2 м над землей.
R - Количество осадков - Количество выпавших осадков за период времени, мм. При наведении курсора мыши на число - период времени, за который выпало указанное количество осадков.
R24 - Количество осадков - Количество выпавших осадков за 24 часа, мм.
S - Снежный покров - Высота снежного покрова, см. При наведении курсора мыши на число - состояние снежного покрова и степень покрытия местности в баллах.